User: anonymous   Login
Location: Unspecified
(0.0000°N, 0.0000°E)
Time: 00:42:19
(UTC+00:00)
Language:

AUBIESAT-1 - Orbit

View from above orbital plane
View from above orbital plane
View from above satellite
View from above satellite

Ground track
Ground track

The orbit data is extracted from the following two-line orbital elements,

1 37854U 11061E   17205.36939070 +.00001488 +00000-0 +87128-4 0  9999
2 37854 101.6981 097.9059 0167222 325.0227 034.0089 15.04207648312079
Epoch (UTC): 24 July 2017 08:51:55
Eccentricity: 0.0167222
inclination: 101.6981°
perigee height: 438 km
apogee height: 670 km
right ascension of ascending node: 97.9059°
argument of perigee: 325.0227°
revolutions per day: 15.04207648
mean anomaly at epoch: 34.0089°
orbit number at epoch: 31207

The dashed part of the orbit path shows where the satellite is in the earth's shadow,  

DLR